Regional Weather Roundup
Issued by NWS

Home | Current Version | Previous Version | Text Only | Print | Product List | Glossary On
Versions: 1 2 3 4 5 6 7 8 9 10 11 12 13 14 15 16 17 18 19 20 21 22 23 24 25 26 27 28 29 30 31 32 33 34 35 36 37 38 39 40 41 42 43 44 45 46 47 48 49 50
000
ASUS43 KTOP 200159
RWRKS

WEATHER ROUNDUP FOR KANSAS
NATIONAL WEATHER SERVICE GOODLAND KS
800 PM CST SUN FEB 19 2017

NOTE:  "FAIR" INDICATES FEW OR NO CLOUDS BELOW 12,000 FEET WITH NO
SIGNIFICANT WEATHER AND/OR OBSTRUCTIONS TO VISIBILITY.

KSZ001>006-013>018-027>032-041>047-200300-
NORTHWEST KANSAS

CITY           SKY/WX    TMP DP  RH WIND       PRES   REMARKS
GOODLAND       MOCLDY    60  33  36 SE26G35   29.65F
HAYS           PTCLDY    57  52  83 S16       29.77S
HILL CITY      PTCLDY    58  54  86 S14G21    29.73R
RUSSELL        PTCLDY    56  52  86 SE17      29.77R
$$

KSZ061>065-074>080-084>089-200300-
SOUTHWEST KANSAS

CITY           SKY/WX    TMP DP  RH WIND       PRES   REMARKS
DODGE CITY     CLOUDY    59  52  77 SE13      29.77R
ELKHART          N/A     54  32  43 S15         N/A
GARDEN CITY    CLEAR     58  36  43 SW10      29.75R
GREAT BEND     CLOUDY    56  53  90 SE15      29.80R
LIBERAL        MOCLDY    59  34  38 S13       29.78F
$$

KSZ066>073-081>083-090>101-200300-
SOUTHEAST KANSAS

CITY           SKY/WX    TMP DP  RH WIND       PRES   REMARKS
CHANUTE        CLEAR     63  55  75 SE7       29.89F
COFFEYVILLE    PTCLDY    64  57  78 SE12      29.90R
HUTCHINSON     CLOUDY    57  54  89 SE12      29.82S
MEDICINE LODGE   N/A     60  55  83 SE8       29.80R
NEWTON         MOCLDY    56  52  86 E5        29.87R
PARSONS        CLEAR     64  56  75 SE6       29.90S
WICHITA INTL   CLOUDY    63  57  81 SE12      29.84S
WICHITA JABRA  MOCLDY    63  57  81 S13       29.85R
WINFIELD       CLOUDY    64  58  80 SE12      29.87R
$$

KSZ007>012-019>026-033>040-048>060-102>105-200300-
NORTHEAST KANSAS

CITY           SKY/WX    TMP DP  RH WIND       PRES   REMARKS
CONCORDIA      CLOUDY    58  53  84 S16       29.80F
EMPORIA        PTCLDY    59  54  83 SE7       29.87S
LAWRENCE         N/A    N/A N/A N/A MISG      29.88S
MANHATTAN      CLOUDY    59  53  80 S6        29.86S
OLATHE IND     CLOUDY    61  51  70 SE5       29.90S
OLATHE EXE     PTCLDY    63  53  70 S5        29.89F
SALINA         PTCLDY    58  53  84 SE9       29.82S
TOPEKA BILLARD PTCLDY    56  51  84 S3        29.87R
TOPEKA FORBES  PTCLDY    59  52  77 S6        29.88R
$$




USA.gov is the U.S. government's official web portal to all federal, state and local government web resources and services.